Weather History for Lima, OH

Change the Weather History Date:

Thursday, December 13, 2012

  Actual Average (KFDY) Record (KFDY)
Temperature  
Mean Temperature 36 °F -  
Max Temperature 45 °F 37 °F 60 °F (1975)
Min Temperature 27 °F 25 °F -7 °F (1962)
Degree Days  
Heating Degree Days 29    
Moisture  
Dew Point 24 °F    
Average Humidity 67    
Maximum Humidity 78    
Minimum Humidity 49    
Precipitation  
Precipitation 0.00 in - - ()
Sea Level Pressure  
Sea Level Pressure 30.35 in    
Wind  
Wind Speed 7 mph (South)    
Max Wind Speed 12 mph    
Max Gust Speed -    
Visibility 10 miles    
Events      
Averages and records for this station are not official NWS values.
T = Trace of Precipitation, MM = Missing Value Source: NWS Daily Summary

Daily Weather History Graph

Daily Weather History Graph

Search for Another Location

Airport:

Trip Planner

Search our weather history database for the weather conditions in past years. The results will help you decide how hot, cold, wet, or windy it might be!

Date:

Astronomy

Dec. 13, 2012 Rise Set
Actual Time 7:51 AM EST 5:09 PM EST
Civil Twilight 7:21 AM EST 5:40 PM EST
Nautical Twilight 6:46 AM EST 6:14 PM EST
Astronomical Twilight 6:13 AM EST 6:47 PM EST
Moon 7:59 AM EST (12/13) 5:50 PM EST (12/13)
Length of Visible Light 10h 19m
Length of Day
9h 17m
New Moon, 0% of the Moon is Illuminated
Dec 13
New Moon
Dec 20
First Quarter
Dec 28
Full
Jan 4
Last Quarter
Jan 11
New

Hourly Weather History & Observations

Time (EST) Temp. Windchill Dew Point Humidity Pressure Visibility Wind Dir Wind Speed Gust Speed Precip Events Conditions
12:53 AM 28.0 °F 20.8 °F 21.9 °F 78% 30.35 in 10.0 mi SSE 6.9 mph - N/A   Clear
1:53 AM 28.0 °F 22.8 °F 21.9 °F 78% 30.39 in 10.0 mi South 4.6 mph - N/A   Clear
2:53 AM 28.0 °F 21.7 °F 21.9 °F 78% 30.40 in 10.0 mi SSE 5.8 mph - N/A   Clear
3:53 AM 28.0 °F 21.7 °F 21.0 °F 75% 30.41 in 10.0 mi South 5.8 mph - N/A   Clear
4:53 AM 28.0 °F 21.7 °F 21.0 °F 75% 30.40 in 10.0 mi South 5.8 mph - N/A   Clear
5:53 AM 27.0 °F 18.7 °F 21.0 °F 78% 30.40 in 10.0 mi SSE 8.1 mph - N/A   Clear
6:53 AM 27.0 °F 20.5 °F 21.0 °F 78% 30.41 in 10.0 mi South 5.8 mph - N/A   Clear
7:53 AM 27.0 °F 19.5 °F 21.0 °F 78% 30.42 in 10.0 mi South 6.9 mph - N/A   Clear
8:53 AM 30.0 °F 24.1 °F 21.9 °F 72% 30.43 in 10.0 mi South 5.8 mph - N/A   Clear
9:53 AM 34.0 °F 27.2 °F 25.0 °F 70% 30.41 in 10.0 mi South 8.1 mph - N/A   Clear
10:53 AM 37.0 °F 29.8 °F 26.1 °F 65% 30.40 in 10.0 mi South 10.4 mph - N/A   Clear
11:53 AM 39.9 °F 33.9 °F 26.1 °F 58% 30.38 in 10.0 mi South 9.2 mph - N/A   Clear
12:53 PM 42.1 °F 37.1 °F 25.0 °F 51% 30.35 in 10.0 mi SSW 8.1 mph - N/A   Clear
1:53 PM 44.1 °F 40.1 °F 26.1 °F 49% 30.34 in 10.0 mi SSW 6.9 mph - N/A   Clear
2:53 PM 45.0 °F 41.2 °F 28.0 °F 52% 30.32 in 10.0 mi South 6.9 mph - N/A   Clear
3:53 PM 44.1 °F 39.0 °F 26.1 °F 49% 30.30 in 10.0 mi South 9.2 mph - N/A   Clear
4:53 PM 42.1 °F 38.4 °F 25.0 °F 51% 30.29 in 10.0 mi South 5.8 mph - N/A   Clear
6:53 PM 35.1 °F 30.1 °F 24.1 °F 64% 30.29 in 10.0 mi South 5.8 mph - N/A   Clear
8:53 PM 35.1 °F 27.9 °F 25.0 °F 67% 30.26 in 10.0 mi South 9.2 mph - N/A   Clear
9:53 PM 35.1 °F 27.4 °F 25.0 °F 67% 30.25 in 10.0 mi South 10.4 mph - N/A   Clear
10:53 PM 35.1 °F 27.4 °F 25.0 °F 67% 30.24 in 10.0 mi South 10.4 mph - N/A   Clear
11:53 PM 36.0 °F 28.0 °F 25.0 °F 64% 30.24 in 10.0 mi South 11.5 mph - N/A   Clear